Chicago, Illinois, United States (60601)
Lat: 41.85N, Lon: 87.65W
Wx Zone: ILZ014
Local Info
Past Weather Observations for Monday, October 27, 2014

NOTE: This archive is for the closest National Weather Service station to Chicago. Information may differ from the station used for current weather conditions.

Click here for Long-term Archive

Time Weather Temperature Dewpoint Humidity Pressure Winds Precip Visibility
23:53
Overcast
Light Rain
66°F / 19°C 55°F / 13°C 68% 29.65 in
(1004 mb)
SSE 17.3 mph
(SSE 28 kph)
0.01 in
(0.25 mm)
10SM
22:53
Overcast
70°F / 21°C 55°F / 13°C 60% 29.65 in
(1004 mb)
SSE 18.4 mph
(SSE 30 kph)
- 10SM
21:53
Overcast
66°F / 19°C 59°F / 15°C 78% 29.68 in
(1005 mb)
SSE 13.8 mph
(SSE 22 kph)
0.01 in
(0.25 mm)
10SM
20:53
Overcast
Light Rain
73°F / 23°C 54°F / 12°C 50% 29.65 in
(1004 mb)
SSE 19.6 mph
(SSE 32 kph)
0.00 in
(0.00 mm)
10SM
19:53
Overcast
72°F / 22°C 55°F / 13°C 57% 29.65 in
(1004 mb)
SSE 12.7 mph
(SSE 20 kph)
- 10SM
18:53
Overcast
73°F / 23°C 57°F / 14°C 57% 29.62 in
(1003 mb)
SW 11.5 mph
(SW 19 kph)
- 10SM
17:53
Mostly Cloudy
73°F / 23°C 57°F / 14°C 57% 29.62 in
(1003 mb)
SW 16.1 mph
(SW 26 kph)
- 10SM
16:53
Mostly Cloudy
75°F / 24°C 57°F / 14°C 54% 29.62 in
(1003 mb)
SW 15 mph
(SW 24 kph)
- 10SM
15:53
Mostly Cloudy
77°F / 25°C 57°F / 14°C 51% 29.59 in
(1002 mb)
SSE 17.3 mph
(SSE 28 kph)
- 10SM
14:53
Overcast
77°F / 25°C 57°F / 14°C 51% 29.59 in
(1002 mb)
SSE 23 mph
(SSE 37 kph)
- 10SM
13:53
Mostly Cloudy
79°F / 26°C 59°F / 15°C 51% 29.59 in
(1002 mb)
SW 23 mph
(SW 37 kph)
- 10SM
12:53
Mostly Cloudy
79°F / 26°C 59°F / 15°C 51% 29.59 in
(1002 mb)
S 19.6 mph
(S 32 kph)
- 10SM
11:53
Mostly Cloudy
75°F / 24°C 61°F / 16°C 61% 29.62 in
(1003 mb)
SSE 13.8 mph
(SSE 22 kph)
- 10SM
10:53
Overcast
72°F / 22°C 61°F / 16°C 69% 29.65 in
(1004 mb)
S 12.7 mph
(S 20 kph)
- 10SM
09:53
Overcast
72°F / 22°C 59°F / 15°C 65% 29.68 in
(1005 mb)
SSE 12.7 mph
(SSE 20 kph)
- 10SM
08:53
Mostly Cloudy
66°F / 19°C 57°F / 14°C 73% 29.71 in
(1006 mb)
SSE 11.5 mph
(SSE 19 kph)
- 10SM
07:53
Mostly Cloudy
63°F / 17°C 54°F / 12°C 73% 29.71 in
(1006 mb)
S 11.5 mph
(S 19 kph)
- 10SM
06:53
Mostly Cloudy
61°F / 16°C 50°F / 10°C 68% 29.71 in
(1006 mb)
S 8.1 mph
(S 13 kph)
- 10SM
05:53
Mostly Cloudy
61°F / 16°C 46°F / 8°C 59% 29.74 in
(1007 mb)
S 9.2 mph
(S 15 kph)
- 10SM
04:53
Mostly Cloudy
59°F / 15°C 43°F / 6°C 55% 29.74 in
(1007 mb)
S 6.9 mph
(S 11 kph)
- 10SM
03:53
Partly Cloudy
57°F / 14°C 36°F / 2°C 44% 29.74 in
(1007 mb)
SSE 5.8 mph
(SSE 9 kph)
- 10SM
02:53
Mostly Cloudy
55°F / 13°C 34°F / 1°C 44% 29.77 in
(1008 mb)
SE 8.1 mph
(SE 13 kph)
- 10SM
01:53
Mostly Cloudy
55°F / 13°C 34°F / 1°C 44% 29.8 in
(1009 mb)
SE 10.4 mph
(SE 17 kph)
- 10SM
00:53
Partly Cloudy
54°F / 12°C 34°F / 1°C 47% 29.83 in
(1010 mb)
SE 8.1 mph
(SE 13 kph)
- 10SM
Time Weather Temperature Dewpoint Humidity Pressure Winds Precip Visibility


Weather for websites

WeatherForYou.com, LLC is not responsible for any damages or problems caused by this service. Current weather conditions are obtained from the closest station including government and personal stations which may have varying degrees of accuracy. Weather forecasts are derived from the NOAA NDFD. Like all things, this site belongs to Jesus Christ... He just trusts me to maintain it. If you have any questions or comments email webmaster@weatherforyou.com

Copyright © 2014, WeatherForYou.com LLC. All rights reserved.